Punta Gorda, FL

5:30 PM EDT on October 14, 2019 (GMT -0400)
Charlotte County

Weather History for KPGD - September, 2019

Change the Weather History Date:

Thursday, September 19, 2019

  Actual Average Record
Temperature  
Mean Temperature 80 °F -  
Max Temperature 90 °F 87 °F 95 °F (2011)
Min Temperature 72 °F 71 °F 70 °F (2010)
Cooling Degree Days 16    
Growing Degree Days 30 (Base 50)    
Moisture  
Dew Point 68 °F    
Average Humidity 72    
Maximum Humidity 100    
Minimum Humidity 42    
Precipitation  
Precipitation 0.00 in - - ()
Sea Level Pressure  
Sea Level Pressure 29.99 in    
Wind  
Wind Speed 10 mph (NE)    
Max Wind Speed 24 mph    
Max Gust Speed 31 mph    
Visibility 10 miles    
Events      
Averages and records for this station are not official NWS values.
T = Trace of Precipitation, MM = Missing Value Source: NWS Daily Summary

Daily Weather History Graph

Daily Weather History Graph

Search for Another Location

Airport or City:

Astronomy

Sep. 19, 2019 Rise Set
Actual Time 7:15 AM EDT 7:28 PM EDT
Civil Twilight 6:51 AM EDT 7:51 PM EDT
Nautical Twilight 6:24 AM EDT 8:18 PM EDT
Astronomical Twilight 5:57 AM EDT 8:45 PM EDT
Moon 11:03 PM EDT (9/19) 11:51 AM EDT (9/19)
Length of Visible Light 12h 59m
Length of Day
12h 12m
Waning Gibbous, 74% of the Moon is Illuminated
Sep 19
Waning Gibbous
Sep 21
Last Quarter
Sep 28
New
Oct 5
First Quarter
Oct 13
Full

Hourly Weather History & Observations

Time (EDT) Temp. Heat Index Dew Point Humidity Pressure Visibility Wind Dir Wind Speed Gust Speed Precip Events Conditions
12:53 AM 75.0 °F - 73.9 °F 96% 29.99 in 10.0 mi NNE 4.6 mph - N/A   Clear
1:53 AM 75.0 °F - 75.0 °F 100% 29.99 in 10.0 mi ENE 10.4 mph - N/A   Clear
2:53 AM 73.9 °F - 73.0 °F 97% 29.98 in 10.0 mi ENE 6.9 mph - N/A   Clear
3:53 AM 73.9 °F - 73.0 °F 97% 29.97 in 10.0 mi NE 6.9 mph - N/A   Clear
4:53 AM 73.0 °F - 73.0 °F 100% 29.97 in 10.0 mi NE 6.9 mph - N/A   Clear
5:53 AM 73.0 °F - 73.0 °F 100% 29.97 in 10.0 mi NE 6.9 mph - N/A   Clear
6:53 AM 72.0 °F - 72.0 °F 100% 29.99 in 10.0 mi NE 6.9 mph - N/A   Clear
7:53 AM 72.0 °F - 71.1 °F 97% 30.00 in 10.0 mi NE 6.9 mph - N/A   Clear
8:53 AM 77.0 °F - 70.0 °F 79% 30.01 in 10.0 mi NE 11.5 mph - N/A   Clear
9:53 AM 81.0 °F 83.8 °F 68.0 °F 65% 30.02 in 10.0 mi ENE 11.5 mph - N/A   Clear
10:53 AM 82.9 °F 85.0 °F 66.0 °F 56% 30.03 in 10.0 mi NE 12.7 mph - N/A   Partly Cloudy
11:53 AM 84.0 °F 85.8 °F 64.9 °F 53% 30.02 in 10.0 mi NE 17.3 mph 25.3 mph N/A   Partly Cloudy
12:53 PM 86.0 °F 86.8 °F 63.0 °F 46% 30.00 in 10.0 mi ENE 17.3 mph 26.5 mph N/A   Partly Cloudy
1:53 PM 87.1 °F 88.9 °F 64.9 °F 48% 29.99 in 10.0 mi ENE 12.7 mph - N/A   Partly Cloudy
2:53 PM 89.1 °F 90.3 °F 64.0 °F 43% 29.96 in 10.0 mi ENE 17.3 mph - N/A   Scattered Clouds
3:53 PM 89.1 °F 90.0 °F 63.0 °F 42% 29.95 in 10.0 mi NE 17.3 mph 24.2 mph N/A   Partly Cloudy
4:53 PM 88.0 °F 88.4 °F 62.1 °F 42% 29.94 in 10.0 mi ENE 18.4 mph - N/A   Partly Cloudy
5:53 PM 84.0 °F 85.8 °F 64.9 °F 53% 29.96 in 10.0 mi ENE 24.2 mph 31.1 mph N/A   Clear
6:53 PM 82.0 °F 83.4 °F 64.0 °F 54% 29.97 in 10.0 mi ENE 16.1 mph 24.2 mph N/A   Overcast
7:53 PM 78.1 °F - 64.9 °F 64% 29.99 in 10.0 mi East 15.0 mph 24.2 mph N/A   Mostly Cloudy
9:53 PM 75.0 °F - 66.0 °F 73% 30.04 in 10.0 mi ENE 10.4 mph - N/A   Overcast
10:53 PM 75.0 °F - 66.0 °F 73% 30.04 in 10.0 mi ENE 11.5 mph - N/A   Partly Cloudy
11:53 PM 73.0 °F - 68.0 °F 84% 30.04 in 10.0 mi NE 11.5 mph - N/A   Clear